カタログに戻る

STARLINK-37908

運用中通信SSO
NORAD 69688·PAYLOAD·🇺🇸 United States

打ち上げ Jun 25, 2026 から Vandenberg Space Force Base

Loading…

次のパス (今後24時間)

TLE

最新Source: CelesTrak SupGP

元期: Sep 14, 2026, 21:23 UTC

1 69688C 26145M   26257.89145833  .00062409  00000+0  19383-2 0  2571
2 69688  97.2843 104.6411 0001762  93.7674 278.8081 15.33391611    19

AllMySatでSTARLINK-37908をリアルタイム追跡

Download on the App Store